COSMOS 1275 DEB

Satellite information

Favourite Embed

Satellite Type and Status

DEBRISIN ORBIT

Key statistics

Satellite COSMOS 1275 DEB at a glance.

Uptime

16105

Days in orbit

Revolutions

≈ 13.7

Per day

Orbit

LEO

Low Earth Orbit

Inclination

83.0

Latest

Satellite identification and parameters

Extended collection of information and parameters for COSMOS 1275 DEB.

Object identification

Identified? True

Debris? True

Object name: COSMOS 1275 DEB

International designator: 1981-053TH

Object number (NORAD): 42193

Object ID (CCSDS): 42193

Country: COMMONWEALTH OF INDEPENDENT STATES (CIS)

Current information (Y/N): Y

RCS size: SMALL

Orbital parameters

Period: 105.298 minutes

Inclination: 82.9553 deg

SMA: 7386.507 km

Apoapsis: 1102.397 km

Periapsis: 914.347 km

RAAN: 132.0202 deg

Eccentricy: 0.0127293

Argument of periapsis: 211.3637 deg

Mean anomaly: 147.9881 deg

Mean motion: 13.67552815 rev/day

Mean motion (dot): 0.00000295 rev/day2

B* drag term: 0.00031467 1/REarth

Two-line elements (TLE)

Creation date: June 30, 2025, 3:44 a.m.

Reference frame: TEME

Reference center: EARTH

Epoch: June 29, 2025, 7:32 p.m. UTC

TLE line 0: 0 COSMOS 1275 DEB

TLE line 1: 1 42193U 81053TH 25180.81403651 .00000295 00000-0 31467-3 0 9990

TLE line 2: 2 42193 82.9553 132.0202 0127293 211.3637 147.9881 13.67552815566592

Live tracking on map

Real-time ground track for satellite COSMOS 1275 DEB.

In-orbit conjunctions

A list of the most updated potential collisions computed for object COSMOS 1275 DEB.

Target Orbit TCA Probability of collision Miss distance Type
COSMOS 2123 LEO 2024-12-14 11:19:32 0.0005699042 316.0 (m) PAYLOAD
COSMOS 2334 LEO 2024-10-31 06:55:12 0.0001748466 460.0 (m) PAYLOAD

Associated space launch

Navigation satellite providing location information for the Tsiklon-B navigation system

COSMOS 1275 DEB was lifted into orbit during the mission ‘Kosmos-3M | Parus 27’, on board a Kosmos-3M space rocket.

The launch took place on June 4, 1981, 3:41 p.m. from 132/2.

For more information about the launch, click the button.

Launch to space Kosmos-3M | Parus 27
Kosmos-3M | Parus 27

Agency: N/A

Status: Launch Successful

Launch date: June 4, 1981, 3:41 p.m. UTC

Rocket: Kosmos-3M

Launch pad: 132/2

Location: Plesetsk Cosmodrome, Russian Federation

...

Latest news about this satellite

There are no fresh news available about this satellite. Check back as we update our databases every day.


Newsletter sign-up

Weekly statistics, charts and insights to help you stay on top of the space industry.